�������l�o���
Date,Time,MP-1(��Sv/h),MP-2(��Sv/h),MP-3(��Sv/h),MP-4(��Sv/h),MP-5(��Sv/h),MP-6(��Sv/h),MP-7(��Sv/h),MP-8(��Sv/h),����,����(m/s),���J
2020/10/29,00:00,0.661,0.949,0.601,1.161,0.837,0.384,0.669,0.629,-,CALM,��
2020/10/29,00:10,0.662,0.948,0.601,1.156,0.838,0.383,0.667,0.630,���k��,0.6,��
2020/10/29,00:20,0.658,0.946,0.599,1.156,0.838,0.383,0.667,0.630,-,CALM,��
2020/10/29,00:30,0.661,0.946,0.602,1.157,0.840,0.384,0.669,0.631,-,CALM,��
2020/10/29,00:40,0.660,0.947,0.601,1.156,0.837,0.385,0.667,0.631,�k�k��,0.6,��
2020/10/29,00:50,0.659,0.946,0.598,1.158,0.838,0.382,0.668,0.630,��쓌,1.1,��
2020/10/29,01:00,0.660,0.949,0.599,1.159,0.836,0.384,0.668,0.630,�쐼,1.2,��
2020/10/29,01:10,0.661,0.948,0.599,1.158,0.838,0.382,0.669,0.629,�쐼,1.2,��
2020/10/29,01:20,0.658,0.948,0.601,1.155,0.837,0.384,0.668,0.631,���쐼,1.7,��
2020/10/29,01:30,0.661,0.948,0.600,1.162,0.838,0.385,0.669,0.630,��쐼,3.1,��
2020/10/29,01:40,0.661,0.947,0.599,1.160,0.838,0.384,0.670,0.631,��쐼,2.8,��
2020/10/29,01:50,0.662,0.948,0.599,1.158,0.836,0.384,0.668,0.628,�쐼,2.0,��
2020/10/29,02:00,0.661,0.945,0.601,1.156,0.839,0.384,0.669,0.631,���k��,1.1,��
2020/10/29,02:10,0.660,0.948,0.600,1.157,0.837,0.385,0.669,0.629,���쐼,3.4,��
2020/10/29,02:20,0.658,0.947,0.601,1.157,0.837,0.384,0.669,0.630,���쐼,4.3,��
2020/10/29,02:30,0.659,0.948,0.599,1.162,0.838,0.385,0.668,0.630,��,2.0,��
2020/10/29,02:40,0.660,0.948,0.600,1.160,0.836,0.385,0.669,0.630,�k�k��,1.1,��
2020/10/29,02:50,0.660,0.947,0.600,1.161,0.839,0.384,0.669,0.631,��,1.2,��
2020/10/29,03:00,0.658,0.948,0.598,1.158,0.836,0.384,0.670,0.630,��,1.1,��
2020/10/29,03:10,0.660,0.947,0.599,1.157,0.839,0.384,0.668,0.630,���쐼,1.1,��
2020/10/29,03:20,0.659,0.946,0.601,1.158,0.836,0.385,0.668,0.631,��,5.4,��
2020/10/29,03:30,0.659,0.949,0.602,1.159,0.838,0.383,0.668,0.631,��,8.2,��
2020/10/29,03:40,0.661,0.947,0.601,1.159,0.839,0.384,0.667,0.631,��,9.2,��
2020/10/29,03:50,0.660,0.948,0.601,1.159,0.837,0.385,0.668,0.630,��,9.6,��
2020/10/29,04:00,0.660,0.949,0.601,1.161,0.838,0.383,0.668,0.631,��,9.8,��
2020/10/29,04:10,0.662,0.949,0.601,1.160,0.839,0.384,0.669,0.631,���k��,8.9,��
2020/10/29,04:20,0.661,0.950,0.602,1.158,0.838,0.385,0.667,0.631,��,11.7,��
2020/10/29,04:30,0.659,0.949,0.601,1.161,0.838,0.384,0.669,0.631,��,8.7,��
2020/10/29,04:40,0.662,0.948,0.600,1.159,0.839,0.385,0.668,0.631,���k��,5.7,��
2020/10/29,04:50,0.662,0.947,0.601,1.159,0.839,0.384,0.668,0.631,�k��,7.0,��
2020/10/29,05:00,0.660,0.949,0.600,1.161,0.838,0.385,0.666,0.631,���k��,7.0,��
2020/10/29,05:10,0.660,0.948,0.601,1.159,0.837,0.384,0.669,0.631,���k��,6.7,��
2020/10/29,05:20,0.662,0.950,0.600,1.159,0.837,0.385,0.668,0.631,���k��,8.3,��
2020/10/29,05:30,0.661,0.948,0.601,1.163,0.836,0.384,0.666,0.631,��,10.0,��
2020/10/29,05:40,0.659,0.948,0.601,1.160,0.837,0.383,0.669,0.632,���k��,8.8,��
2020/10/29,05:50,0.661,0.947,0.602,1.160,0.838,0.384,0.668,0.631,���k��,8.2,��
2020/10/29,06:00,0.661,0.948,0.602,1.162,0.837,0.384,0.667,0.631,��,2.8,��
2020/10/29,06:10,0.659,0.948,0.600,1.161,0.837,0.383,0.666,0.630,��,1.2,��
2020/10/29,06:20,0.660,0.948,0.600,1.161,0.838,0.385,0.667,0.630,���k��,2.3,��
2020/10/29,06:30,0.660,0.949,0.600,1.163,0.838,0.384,0.668,0.630,��,6.5,��
2020/10/29,06:40,0.660,0.950,0.601,1.162,0.838,0.384,0.668,0.630,���k��,7.2,��
2020/10/29,06:50,0.659,0.948,0.600,1.160,0.837,0.385,0.670,0.632,���k��,3.9,��
2020/10/29,07:00,0.661,0.950,0.601,1.161,0.839,0.384,0.669,0.632,���k��,2.5,��
2020/10/29,07:10,0.661,0.950,0.600,1.160,0.837,0.383,0.669,0.631,���k��,3.1,��
2020/10/29,07:20,0.660,0.948,0.601,1.162,0.837,0.385,0.669,0.630,���k��,6.0,��
2020/10/29,07:30,0.659,0.948,0.601,1.162,0.839,0.384,0.669,0.629,�k��,5.5,��
2020/10/29,07:40,0.660,0.948,0.600,1.160,0.837,0.384,0.668,0.632,�k��,6.0,��
2020/10/29,07:50,0.659,0.948,0.600,1.163,0.836,0.382,0.668,0.631,���k��,5.7,��
2020/10/29,08:00,0.661,0.947,0.600,1.164,0.836,0.384,0.669,0.632,�k��,6.6,��
2020/10/29,08:10,0.660,0.950,0.602,1.162,0.838,0.384,0.668,0.632,�k��,5.8,��
2020/10/29,08:20,0.663,0.947,0.603,1.161,0.837,0.385,0.668,0.631,���k��,5.1,��
2020/10/29,08:30,0.662,0.948,0.601,1.163,0.838,0.384,0.669,0.631,���k��,8.0,��
2020/10/29,08:40,0.661,0.946,0.601,1.162,0.838,0.384,0.669,0.632,���k��,9.1,��
2020/10/29,08:50,0.662,0.944,0.602,1.162,0.836,0.383,0.668,0.632,���k��,7.5,��
2020/10/29,09:00,0.661,0.944,0.602,1.162,0.839,0.383,0.667,0.632,���k��,6.0,��
2020/10/29,09:10,0.661,0.946,0.604,1.162,0.839,0.384,0.667,0.632,��,6.1,��
2020/10/29,09:20,0.661,0.941,0.603,1.164,0.839,0.384,0.669,0.631,���k��,7.3,��
2020/10/29,09:30,0.661,0.944,0.602,1.163,0.838,0.383,0.669,0.632,���k��,7.7,��
2020/10/29,09:40,0.660,0.944,0.601,1.165,0.833,0.384,0.668,0.632,���k��,9.7,��
2020/10/29,09:50,0.662,0.943,0.601,1.164,0.838,0.382,0.668,0.631,���k��,9.9,��
2020/10/29,10:00,0.662,0.943,0.601,1.168,0.834,0.382,0.670,0.630,��,11.8,��
2020/10/29,10:10,0.661,0.947,0.600,1.166,0.835,0.383,0.668,0.631,���k��,13.5,��
2020/10/29,10:20,0.662,0.945,0.600,1.165,0.835,0.383,0.669,0.630,���k��,11.3,��
2020/10/29,10:30,0.660,0.946,0.602,1.165,-,0.382,0.668,0.630,���k��,12.4,��
2020/10/29,10:40,0.661,0.947,0.599,1.167,-,0.383,0.668,0.630,���k��,9.5,��
2020/10/29,10:50,0.662,0.946,0.600,1.165,-,0.383,0.671,0.631,�k��,12.1,��
2020/10/29,11:00,0.662,0.946,0.600,1.165,-,0.383,0.669,0.629,���k��,9.1,��
2020/10/29,11:10,0.663,0.946,0.603,1.168,-,0.384,0.668,0.632,���k��,7.6,��
2020/10/29,11:20,0.660,0.949,0.601,1.166,-,0.383,0.668,0.632,���k��,5.0,��
2020/10/29,11:30,0.662,0.947,0.600,1.166,-,0.384,0.668,0.630,���k��,8.1,��
2020/10/29,11:40,0.662,0.951,0.601,1.165,-,0.382,0.669,0.629,��,6.8,��
2020/10/29,11:50,0.663,0.950,0.601,1.167,-,0.383,0.668,0.630,���k��,5.8,��
2020/10/29,12:00,0.661,0.951,0.601,1.168,-,0.383,0.671,0.632,���k��,8.7,��
2020/10/29,12:10,0.665,0.952,0.603,1.167,-,0.385,0.670,0.630,���k��,10.9,��
2020/10/29,12:20,0.665,0.950,0.603,1.166,-,0.384,0.670,0.630,��,10.9,��
2020/10/29,12:30,0.664,0.952,0.602,1.169,-,0.384,0.669,0.628,��,9.5,��
2020/10/29,12:40,0.665,0.955,0.601,1.167,-,0.386,0.670,0.630,��,10.3,��
2020/10/29,12:50,0.663,0.949,0.602,1.166,-,0.384,0.670,0.629,��,9.7,��
2020/10/29,13:00,0.664,0.945,0.601,1.168,0.839,0.384,0.669,0.632,��,9.6,��
2020/10/29,13:10,0.663,0.949,0.601,1.169,0.840,0.385,0.670,0.629,��,8.7,��
2020/10/29,13:20,0.663,0.947,0.603,1.167,0.842,0.383,0.668,0.631,��,9.0,��
2020/10/29,13:30,0.665,0.949,0.601,1.169,0.842,0.384,0.670,0.630,��,9.8,��
2020/10/29,13:40,0.665,0.950,0.603,1.171,0.842,0.384,0.669,0.630,��,9.8,��
2020/10/29,13:50,0.663,0.949,0.601,1.172,0.842,0.382,0.670,0.631,��,9.5,��
2020/10/29,14:00,0.663,0.949,0.602,1.167,0.841,0.384,0.669,0.630,��,10.2,��
2020/10/29,14:10,0.663,0.952,0.601,1.171,0.843,0.384,0.671,0.631,��,10.0,��
2020/10/29,14:20,0.664,0.950,0.603,1.170,0.841,0.385,0.670,0.629,��,9.3,��
2020/10/29,14:30,0.663,0.952,0.603,1.171,0.843,0.385,0.668,0.629,��,9.0,��
2020/10/29,14:40,0.664,0.951,0.602,1.170,0.843,0.385,0.670,0.629,��,7.9,��
2020/10/29,14:50,0.663,0.950,0.602,1.169,0.843,0.385,0.670,0.630,��,8.7,��
2020/10/29,15:00,0.662,0.951,0.604,1.170,0.841,0.385,0.668,0.630,��,6.9,��
2020/10/29,15:10,0.665,0.949,0.602,1.172,0.842,0.385,0.669,0.631,��,6.9,��
2020/10/29,15:20,0.662,0.952,0.601,1.170,0.843,0.385,0.669,0.629,��,6.0,��
2020/10/29,15:30,0.663,0.953,0.602,1.169,0.842,0.387,0.669,0.630,���k��,6.0,��
2020/10/29,15:40,0.662,0.951,0.603,1.172,0.843,0.385,0.669,0.632,���k��,7.5,��
2020/10/29,15:50,0.662,0.955,0.601,1.170,0.843,0.385,0.669,0.630,���k��,9.4,��
2020/10/29,16:00,0.661,0.954,0.603,1.171,0.844,0.388,0.669,0.632,���k��,7.1,��
2020/10/29,16:10,0.663,0.954,0.603,1.171,0.843,0.387,0.670,0.633,�k��,6.6,��
2020/10/29,16:20,0.662,0.956,0.603,1.170,0.842,0.384,0.668,0.632,�k��,8.5,��
2020/10/29,16:30,0.663,0.956,0.604,1.171,0.843,0.385,0.668,0.634,�k��,10.3,��
2020/10/29,16:40,0.662,0.958,0.602,1.172,0.842,0.386,0.669,0.633,�k��,9.1,��
2020/10/29,16:50,0.661,0.958,0.604,1.169,0.841,0.387,0.669,0.633,���k��,8.1,��
2020/10/29,17:00,0.665,0.958,0.603,1.170,0.843,0.386,0.668,0.634,���k��,5.7,��
2020/10/29,17:10,0.663,0.958,0.604,1.171,0.844,0.385,0.670,0.634,�k��,7.7,��
2020/10/29,17:20,0.664,0.959,0.604,1.171,0.844,0.385,0.670,0.632,�k��,7.9,��
2020/10/29,17:30,0.666,0.961,0.606,1.172,0.846,0.386,0.670,0.632,�k��,11.1,��
2020/10/29,17:40,0.665,0.958,0.605,1.173,0.846,0.387,0.670,0.632,�k��,8.3,��
2020/10/29,17:50,0.666,0.959,0.606,1.170,0.846,0.386,0.670,0.635,�k��,10.5,��
2020/10/29,18:00,0.666,0.958,0.607,1.172,0.846,0.385,0.670,0.633,�k��,9.1,��
2020/10/29,18:10,0.663,0.960,0.607,1.171,0.848,0.385,0.671,0.634,�k��,8.3,��
2020/10/29,18:20,0.664,0.960,0.606,1.173,0.846,0.386,0.669,0.634,�k��,8.4,��
2020/10/29,18:30,0.665,0.959,0.604,1.174,0.845,0.385,0.667,0.634,�k��,6.9,��
2020/10/29,18:40,0.665,0.960,0.604,1.172,0.845,0.384,0.668,0.633,�k��,5.6,��
2020/10/29,18:50,0.666,0.960,0.606,1.175,0.845,0.385,0.668,0.633,�k��,6.6,��
2020/10/29,19:00,0.665,0.961,0.604,1.174,0.847,0.384,0.669,0.633,�k��,7.2,��
2020/10/29,19:10,0.665,0.958,0.605,1.173,0.848,0.383,0.670,0.632,�k��,8.5,��
2020/10/29,19:20,0.663,0.960,0.605,1.176,0.846,0.385,0.671,0.631,�k��,8.5,��
2020/10/29,19:30,0.665,0.961,0.605,1.173,0.846,0.385,0.671,0.633,�k��,8.6,��
2020/10/29,19:40,0.666,0.958,0.604,1.173,0.845,0.384,0.671,0.633,�k��,8.5,��
2020/10/29,19:50,0.666,0.960,0.604,1.173,0.846,0.384,0.672,0.632,�k��,8.2,��
2020/10/29,20:00,0.664,0.960,0.605,1.175,0.846,0.384,0.671,0.632,�k��,3.8,��
2020/10/29,20:10,0.665,0.960,0.604,1.173,0.847,0.384,0.670,0.632,�k�k��,2.2,��
2020/10/29,20:20,0.663,0.960,0.604,1.172,0.846,0.385,0.672,0.634,�k��,2.0,��
2020/10/29,20:30,0.664,0.960,0.605,1.171,0.846,0.384,0.668,0.634,�k�k��,2.5,��
2020/10/29,20:40,0.664,0.959,0.606,1.172,0.846,0.385,0.670,0.631,�k,3.2,��
2020/10/29,20:50,0.664,0.958,0.604,1.173,0.846,0.384,0.673,0.632,�k,2.8,��
2020/10/29,21:00,0.666,0.958,0.603,1.175,0.846,0.384,0.672,0.632,�k��,2.8,��
2020/10/29,21:10,0.664,0.959,0.605,1.172,0.846,0.385,0.670,0.633,�k��,2.6,��
2020/10/29,21:20,0.665,0.959,0.603,1.172,0.847,0.385,0.670,0.632,�k��,2.6,��
2020/10/29,21:30,0.664,0.956,0.603,1.172,0.846,0.384,0.671,0.632,��,1.7,��
2020/10/29,21:40,0.664,0.957,0.607,1.172,0.845,0.385,0.672,0.633,���k��,7.3,��
2020/10/29,21:50,0.665,0.956,0.604,1.175,0.846,0.384,0.672,0.632,���k��,12.8,��
2020/10/29,22:00,0.666,0.956,0.605,1.172,0.846,0.385,0.672,0.632,���k��,14.4,��
2020/10/29,22:10,0.665,0.959,0.604,1.175,0.847,0.386,0.671,0.632,���k��,13.3,��
2020/10/29,22:20,0.665,0.959,0.605,1.174,0.847,0.384,0.672,0.633,���k��,12.7,��
2020/10/29,22:30,0.667,0.959,0.604,1.174,0.847,0.386,0.671,0.633,���k��,11.8,��
2020/10/29,22:40,0.665,0.959,0.605,1.175,0.847,0.384,0.669,0.634,��,10.7,��
2020/10/29,22:50,0.664,0.959,0.604,1.174,0.846,0.385,0.670,0.633,��,9.8,��
2020/10/29,23:00,0.664,0.958,0.606,1.175,0.847,0.386,0.669,0.633,���k��,11.9,��
2020/10/29,23:10,0.665,0.958,0.606,1.174,0.847,0.385,0.669,0.634,���k��,11.4,��
2020/10/29,23:20,0.665,0.958,0.604,1.174,0.848,0.386,0.670,0.632,���k��,10.6,��
2020/10/29,23:30,0.666,0.959,0.606,1.173,0.847,0.385,0.670,0.635,���k��,11.3,��
2020/10/29,23:40,0.664,0.959,0.607,1.174,0.847,0.386,0.670,0.633,��,8.7,��
2020/10/29,23:50,0.666,0.957,0.605,1.174,0.845,0.386,0.670,0.634,���k��,10.9,��
